COSMOS 2457 (733)

Last updated on Wed Nov 20 2024 00:03:10 GMT+0000 (Coordinated Universal Time)

1 36112U 09070B 24324.36725543 .00000008 00000+0 00000+0 0 9995 2 36112 64.6739 90.4893 0005857 152.4078 251.6418 2.13101047116188
UTC large
Height (km)
Speed (km/s)
/
Latitude / Longitude
Inclination (degrees)
Orbital Period (minutes)
Azimuth
Elevation
Range (km)
Doppler Factor

Next 0 passes for location: London (51.5072 / 0.1276)

Sorry there are no passes over London.